User: anonymous   Login
Location: Unspecified
(0.0000°N, 0.0000°E)
Time: 18:03:47
(UTC+00:00)
Language:

STARLINK-34662 - Orbit

View from above orbital plane
View from above orbital plane
View from above satellite
View from above satellite

Ground track
Ground track

The orbit is defined by the following mean orbital elements,

1 64799U          26145.41530163 +.00000000 +00000-0 +40503-3 0 00004
2 64799  70.0007 300.8410 0002335 267.3588  92.7303 14.98350255    05
Epoch (UTC): 25 May 2026 09:58:02
Eccentricity: 0.0002335
inclination: 70.0007°
perigee height: 570 km
apogee height: 574 km
right ascension of ascending node: 300.8410°
argument of perigee: 267.3588°
revolutions per day: 14.98350255
mean anomaly at epoch: 92.7303°

The dashed part of the orbit path shows where the satellite is in the earth's shadow,  

DLR